Weather History for Mosby, MO

Change the Weather History Date:

Monday, December 31, 2012

  Actual Average (KMKC) Record (KMKC)
Temperature  
Mean Temperature 30 °F -  
Max Temperature 37 °F 38 °F 66 °F (2011)
Min Temperature 23 °F 21 °F 3 °F (2000)
Degree Days  
Heating Degree Days 35    
Moisture  
Dew Point 25 °F    
Average Humidity 80    
Maximum Humidity 100    
Minimum Humidity 56    
Precipitation  
Precipitation 0.00 in - - ()
Sea Level Pressure  
Sea Level Pressure 30.12 in    
Wind  
Wind Speed 6 mph (NNW)    
Max Wind Speed 12 mph    
Max Gust Speed -    
Visibility 7 miles    
Events Rain , Snow    
Averages and records for this station are not official NWS values.
T = Trace of Precipitation, MM = Missing Value Source: NWS Daily Summary

Daily Weather History Graph

Daily Weather History Graph

Search for Another Location

Airport:

Trip Planner

Search our weather history database for the weather conditions in past years. The results will help you decide how hot, cold, wet, or windy it might be!

Date:

Astronomy

Dec. 31, 2012 Rise Set
Actual Time 7:37 AM CST 5:04 PM CST
Civil Twilight 7:06 AM CST 5:34 PM CST
Nautical Twilight 6:33 AM CST 6:07 PM CST
Astronomical Twilight 6:00 AM CST 6:40 PM CST
Moon 8:34 PM CST (12/31) 9:20 AM CST (12/31)
Length of Visible Light 10h 27m
Length of Day
9h 27m
Waning Gibbous, 90% of the Moon is Illuminated
Dec 31
Waning Gibbous
Jan 4
Last Quarter
Jan 11
New
Jan 18
First Quarter
Jan 26
Full

Hourly Weather History & Observations

Time (CST) Temp. Windchill Dew Point Humidity Pressure Visibility Wind Dir Wind Speed Gust Speed Precip Events Conditions
12:15 AM 37.4 °F 31.4 °F 23.0 °F 56% 30.13 in 10.0 mi SSW 8.1 mph - N/A   Clear
12:35 AM 37.4 °F 30.3 °F 23.0 °F 56% 30.14 in 10.0 mi SW 10.4 mph - N/A   Clear
12:55 AM 37.4 °F 32.1 °F 23.0 °F 56% 30.13 in 10.0 mi SSW 6.9 mph - N/A   Clear
1:15 AM 37.4 °F 30.8 °F 23.0 °F 56% 30.13 in 10.0 mi SW 9.2 mph - N/A   Clear
1:35 AM 37.4 °F 30.8 °F 23.0 °F 56% 30.14 in 10.0 mi SW 9.2 mph - N/A   Clear
1:55 AM 37.4 °F 30.3 °F 23.0 °F 56% 30.13 in 10.0 mi SW 10.4 mph - N/A   Clear
2:15 AM 37.4 °F 30.8 °F 23.0 °F 56% 30.14 in 10.0 mi SW 9.2 mph - N/A   Clear
2:35 AM 37.4 °F 32.1 °F 23.0 °F 56% 30.14 in 10.0 mi SW 6.9 mph - N/A   Mostly Cloudy
2:55 AM 37.4 °F 33.8 °F 23.0 °F 56% 30.14 in 10.0 mi SW 4.6 mph - N/A   Overcast
3:15 AM 37.4 °F 32.1 °F 23.0 °F 56% 30.13 in 10.0 mi SW 6.9 mph - N/A   Overcast
3:35 AM 37.4 °F 32.8 °F 23.0 °F 56% 30.12 in 10.0 mi SW 5.8 mph - N/A   Overcast
3:55 AM 37.4 °F 32.1 °F 23.0 °F 56% 30.12 in 10.0 mi SW 6.9 mph - N/A   Overcast
4:15 AM 35.6 °F 30.7 °F 23.0 °F 60% 30.12 in 10.0 mi SW 5.8 mph - N/A   Overcast
4:35 AM 35.6 °F 32.8 °F 23.0 °F 60% 30.12 in 10.0 mi SSW 3.5 mph - N/A   Overcast
4:55 AM 35.6 °F 31.7 °F 23.0 °F 60% 30.12 in 10.0 mi SSW 4.6 mph - N/A   Overcast
5:15 AM 35.6 °F 32.8 °F 23.0 °F 60% 30.12 in 10.0 mi South 3.5 mph - N/A   Overcast
5:35 AM 35.6 °F - 24.8 °F 65% 30.11 in 10.0 mi Calm Calm - N/A   Overcast
5:55 AM 35.6 °F - 24.8 °F 65% 30.10 in 10.0 mi Calm Calm - N/A   Mostly Cloudy
6:15 AM 35.6 °F - 24.8 °F 65% 30.10 in 10.0 mi Calm Calm - N/A   Mostly Cloudy
6:35 AM 35.6 °F - 24.8 °F 65% 30.10 in 10.0 mi Calm Calm - N/A   Overcast
6:55 AM 33.8 °F 30.8 °F 26.6 °F 75% 30.10 in 10.0 mi ESE 3.5 mph - N/A   Overcast
7:35 AM 33.8 °F - 26.6 °F 75% 30.11 in 10.0 mi Calm Calm - N/A   Overcast
8:15 AM 33.8 °F - 26.6 °F 75% 30.12 in 10.0 mi Calm Calm - N/A   Mostly Cloudy
8:35 AM 33.8 °F - 26.6 °F 75% 30.12 in 10.0 mi Calm Calm - N/A   Overcast
8:55 AM 33.8 °F - 26.6 °F 75% 30.12 in 10.0 mi Calm Calm - N/A   Unknown
9:15 AM 33.8 °F - 26.6 °F 75% 30.12 in 10.0 mi Calm Calm - N/A   Unknown
9:35 AM 33.8 °F 25.8 °F 30.2 °F 87% 30.14 in 5.0 mi SSW 10.4 mph - N/A Snow Light Snow
9:55 AM 32.0 °F 25.6 °F 32.0 °F 100% 30.15 in 2.5 mi SW 6.9 mph - N/A Snow Light Snow
10:15 AM 32.0 °F 27.5 °F 32.0 °F 100% 30.15 in 1.2 mi SW 4.6 mph - N/A Snow Light Snow
10:35 AM 32.0 °F - 32.0 °F 100% 30.15 in 1.2 mi Calm Calm - N/A Snow Light Snow
10:55 AM 32.0 °F - 32.0 °F 100% 30.15 in 1.2 mi Calm Calm - N/A Snow Light Snow
11:15 AM 32.0 °F - 32.0 °F 100% 30.15 in 1.8 mi Calm Calm - N/A Snow Light Snow
11:35 AM 32.0 °F 28.7 °F 32.0 °F 100% 30.15 in 1.2 mi WNW 3.5 mph - N/A Snow Light Snow
11:55 AM 32.0 °F 25.6 °F 32.0 °F 100% 30.13 in 1.2 mi NNW 6.9 mph - N/A Snow Light Snow
12:15 PM 32.0 °F 26.4 °F 32.0 °F 100% 30.11 in 4.0 mi North 5.8 mph - N/A Snow Light Snow
12:35 PM 32.0 °F 27.5 °F 32.0 °F 100% 30.10 in 10.0 mi NNE 4.6 mph - N/A   Mostly Cloudy
12:55 PM 32.0 °F 27.5 °F 32.0 °F 100% 30.09 in 3.0 mi North 4.6 mph - N/A Rain Light Rain
1:15 PM 32.0 °F 26.4 °F 32.0 °F 100% 30.09 in 2.5 mi North 5.8 mph - N/A Snow Light Snow
1:35 PM 32.0 °F 24.8 °F 32.0 °F 100% 30.07 in 2.0 mi North 8.1 mph - N/A Snow Light Snow
1:55 PM 32.0 °F 25.6 °F 30.2 °F 93% 30.07 in 5.0 mi NE 6.9 mph - N/A   Overcast
2:15 PM 32.0 °F 25.6 °F 30.2 °F 93% 30.07 in 7.0 mi NE 6.9 mph - N/A   Overcast
2:35 PM 32.0 °F 25.6 °F 30.2 °F 93% 30.07 in 10.0 mi NNE 6.9 mph - N/A   Unknown
2:55 PM 30.2 °F 22.6 °F 28.4 °F 93% 30.07 in 1.5 mi NNE 8.1 mph - N/A Snow Light Snow
3:15 PM 30.2 °F 22.6 °F 28.4 °F 93% 30.08 in 2.0 mi North 8.1 mph - N/A Snow Light Snow
3:35 PM 30.2 °F 20.8 °F 28.4 °F 93% 30.08 in 1.5 mi North 11.5 mph - N/A Snow Light Snow
3:55 PM 28.4 °F 19.7 °F 26.6 °F 93% 30.08 in 3.0 mi North 9.2 mph - N/A Snow Light Snow
4:15 PM 28.4 °F 20.4 °F 26.6 °F 93% 30.09 in 1.2 mi North 8.1 mph - N/A Snow Light Snow
4:35 PM 28.4 °F 20.4 °F 26.6 °F 93% 30.10 in 3.0 mi North 8.1 mph - N/A Snow Light Snow
5:15 PM 28.4 °F 21.2 °F 24.8 °F 86% 30.10 in 7.0 mi North 6.9 mph - N/A Snow Light Snow
5:35 PM 26.6 °F 19.1 °F 23.0 °F 86% 30.10 in 3.0 mi North 6.9 mph - N/A Snow Light Snow
5:55 PM 26.6 °F 16.2 °F 23.0 °F 86% 30.10 in 5.0 mi NNE 11.5 mph - N/A Snow Light Snow
6:15 PM 26.6 °F 17.5 °F 23.0 °F 86% 30.13 in 7.0 mi North 9.2 mph - N/A   Unknown
6:35 PM 26.6 °F 18.2 °F 23.0 °F 86% 30.12 in 7.0 mi NNE 8.1 mph - N/A   Unknown
6:55 PM 26.6 °F 19.1 °F 23.0 °F 86% 30.13 in 4.0 mi North 6.9 mph - N/A Snow Light Snow
7:15 PM 26.6 °F 19.1 °F 23.0 °F 86% 30.14 in 4.0 mi North 6.9 mph - N/A Snow Light Snow
7:35 PM 26.6 °F 18.2 °F 23.0 °F 86% 30.14 in 3.0 mi North 8.1 mph - N/A Snow Light Snow
7:55 PM 26.6 °F 17.5 °F 21.2 °F 80% 30.15 in 3.0 mi North 9.2 mph - N/A Snow Light Snow
8:35 PM 26.6 °F 17.5 °F 21.2 °F 80% 30.14 in 7.0 mi North 9.2 mph - N/A Snow Light Snow
8:55 PM 24.8 °F 15.3 °F 21.2 °F 86% 30.15 in 10.0 mi North 9.2 mph - N/A Snow Light Snow
9:15 PM 24.8 °F 15.3 °F 21.2 °F 86% 30.15 in 7.0 mi North 9.2 mph - N/A Snow Light Snow
9:35 PM 24.8 °F 17.9 °F 21.2 °F 86% 30.16 in 10.0 mi North 5.8 mph - N/A   Overcast
9:55 PM 24.8 °F 14.6 °F 19.4 °F 80% 30.17 in 10.0 mi North 10.4 mph - N/A   Overcast
10:15 PM 24.8 °F 16.1 °F 19.4 °F 80% 30.17 in 10.0 mi North 8.1 mph - N/A Snow Light Snow
10:35 PM 24.8 °F 15.3 °F 19.4 °F 80% 30.17 in 10.0 mi North 9.2 mph - N/A   Overcast
10:55 PM 23.0 °F 11.7 °F 19.4 °F 86% 30.18 in 10.0 mi North 11.5 mph - N/A   Overcast
11:15 PM 23.0 °F 12.4 °F 19.4 °F 86% 30.19 in 10.0 mi North 10.4 mph - N/A   Unknown
11:35 PM 23.0 °F 15.8 °F 19.4 °F 86% 30.19 in 10.0 mi North 5.8 mph - N/A   Unknown
11:55 PM 23.0 °F 13.9 °F 19.4 °F 86% 30.19 in 10.0 mi North 8.1 mph - N/A   Overcast